WA4BPS Weather Reports


Display with metric or nautical units.
time (UTC)temp
F
wind
direction
speed
MPH
gust
MPH
rain 1hr
in
rain 24hr
in
rain mn
in
humidity
%
barometer
mb
20260505100104 60 294 13.0 26.0 0.00 0.00 0.00 63 1008.5
20260505095925 60 258 14.0 27.0 0.00 0.00 0.00 63 1008.5
20260505095824 60 272 10.0 27.0 0.00 0.00 0.00 63 1008.2
20260505095742 60 246 13.0 27.0 0.00 0.00 0.00 63 1008.2
20260505095700 60 234 13.0 27.0 0.00 0.00 0.00 63 1008.2
20260505095558 61 270 13.0 27.0 0.00 0.00 0.00 62 1008.2
20260505095435 61 292 13.0 27.0 0.00 0.00 0.00 62 1008.2
20260505095353 61 209 15.0 27.0 0.00 0.00 0.00 62 1008.2
20260505095231 61 265 12.0 27.0 0.00 0.00 0.00 63 1008.2
20260505095129 61 308 14.0 27.0 0.00 0.00 0.00 62 1008.2
20260505095032 61 288 11.0 20.0 0.00 0.00 0.00 62 1008.2
20260505094931 61 282 12.0 20.0 0.00 0.00 0.00 62 1008.2
20260505094829 61 274 15.0 20.0 0.00 0.00 0.00 62 1008.2
20260505094739 61 274 10.0 20.0 0.00 0.00 0.00 62 1008.2
20260505094648 61 216 13.0 20.0 0.00 0.00 0.00 62 1008.2
20260505094526 61 309 11.0 25.0 0.00 0.00 0.00 62 1008.2
20260505094426 61 216 14.0 25.0 0.00 0.00 0.00 62 1008.2
20260505094328 61 288 8.0 25.0 0.00 0.00 0.00 62 1008.0
20260505094225 61 243 14.0 25.0 0.00 0.00 0.00 62 1008.0
20260505094124 61 227 12.0 25.0 0.00 0.00 0.00 62 1008.0
20260505094043 61 275 10.0 25.0 0.00 0.00 0.00 62 1008.0
20260505094001 61 289 12.0 25.0 0.00 0.00 0.00 62 1008.0
20260505093838 61 311 11.0 25.0 0.00 0.00 0.00 61 1008.0
20260505093738 61 199 13.0 28.0 0.00 0.00 0.00 62 1008.0
20260505093639 61 296 12.0 28.0 0.00 0.00 0.00 61 1008.0
20260505093538 61 285 14.0 28.0 0.00 0.00 0.00 61 1008.0
20260505093456 61 318 14.0 28.0 0.00 0.00 0.00 61 1008.0
20260505093352 61 306 17.0 28.0 0.00 0.00 0.00 61 1008.0
20260505093301 61 285 11.0 28.0 0.00 0.00 0.00 61 1008.0
20260505093150 61 189 11.0 28.0 0.00 0.00 0.00 60 1008.0
20260505093024 61 260 11.0 28.0 0.00 0.00 0.00 60 1008.0
20260505092942 61 223 13.0 28.0 0.00 0.00 0.00 60 1008.0
20260505092841 61 299 14.0 28.0 0.00 0.00 0.00 60 1008.1
20260505092724 61 258 12.0 26.0 0.00 0.00 0.00 60 1008.1
20260505092642 61 299 12.0 26.0 0.00 0.00 0.00 60 1008.1
20260505092540 61 298 14.0 26.0 0.00 0.00 0.00 60 1008.1
20260505092458 61 318 14.0 26.0 0.00 0.00 0.00 60 1008.1
20260505092336 61 193 9.0 26.0 0.00 0.00 0.00 60 1008.1
20260505092234 61 325 11.0 26.0 0.00 0.00 0.00 60 1008.1
20260505092151 61 243 14.0 26.0 0.00 0.00 0.00 60 1008.1
20260505092029 61 264 9.0 25.0 0.00 0.00 0.00 60 1008.1
20260505091932 62 308 11.0 25.0 0.00 0.00 0.00 59 1008.1
20260505091829 62 250 13.0 25.0 0.00 0.00 0.00 59 1008.1
20260505091738 62 298 11.0 26.0 0.00 0.00 0.00 59 1008.1
20260505091648 62 256 12.0 26.0 0.00 0.00 0.00 59 1008.1
20260505091546 62 251 15.0 26.0 0.00 0.00 0.00 59 1008.1
20260505091505 62 272 14.0 26.0 0.00 0.00 0.00 59 1008.1
20260505091401 62 268 15.0 26.0 0.00 0.00 0.00 59 1008.9
20260505091258 62 230 15.0 26.0 0.00 0.00 0.00 59 1008.9
20260505091136 62 239 14.0 26.0 0.00 0.00 0.00 59 1008.9
20260505091039 62 287 13.0 26.0 0.00 0.00 0.00 59 1008.9
20260505090937 62 274 16.0 26.0 0.00 0.00 0.00 59 1008.9
20260505090835 62 189 11.0 25.0 0.00 0.00 0.00 58 1008.9
20260505090753 62 258 10.0 25.0 0.00 0.00 0.00 58 1008.9
20260505090631 62 227 14.0 25.0 0.00 0.00 0.00 58 1008.9
20260505090529 62 263 13.0 25.0 0.00 0.00 0.00 58 1008.9
20260505090427 62 220 12.0 25.0 0.00 0.00 0.00 58 1008.9
20260505090329 62 301 16.0 25.0 0.00 0.00 0.00 58 1008.9
20260505090249 62 278 11.0 25.0 0.00 0.00 0.00 58 1008.9
20260505090157 62 301 11.0 25.0 0.00 0.00 0.00 58 1008.9
20260505090034 62 230 12.0 25.0 0.00 0.00 0.00 58 1008.9
20260505085934 62 240 8.0 24.0 0.00 0.00 0.00 58 1008.9
20260505085852 62 254 12.0 24.0 0.00 0.00 0.00 58 1009.2
20260505085750 62 270 13.0 24.0 0.00 0.00 0.00 58 1009.2
20260505085647 62 275 14.0 24.0 0.00 0.00 0.00 58 1009.2
20260505085545 62 302 15.0 24.0 0.00 0.00 0.00 58 1009.2
20260505085443 62 313 14.0 24.0 0.00 0.00 0.00 57 1009.2
20260505085325 62 270 13.0 22.0 0.00 0.00 0.00 57 1009.2
20260505085244 62 260 12.0 22.0 0.00 0.00 0.00 57 1009.2
20260505085142 62 210 12.0 24.0 0.00 0.00 0.00 57 1009.2
20260505085040 62 277 14.0 24.0 0.00 0.00 0.00 57 1009.2
20260505084959 62 220 13.0 24.0 0.00 0.00 0.00 57 1009.2
20260505084856 62 256 14.0 24.0 0.00 0.00 0.00 57 1009.2
20260505084734 62 251 15.0 24.0 0.00 0.00 0.00 57 1009.2
20260505084703 62 263 13.0 24.0 0.00 0.00 0.00 57 1009.2
20260505084526 62 271 13.0 24.0 0.00 0.00 0.00 57 1009.2
20260505084424 62 248 7.0 26.0 0.00 0.00 0.00 57 1009.2
20260505084324 62 271 15.0 26.0 0.00 0.00 0.00 57 1009.2
20260505084243 62 248 11.0 26.0 0.00 0.00 0.00 57 1009.2
20260505084141 62 274 12.0 26.0 0.00 0.00 0.00 56 1009.2
20260505084100 62 275 12.0 26.0 0.00 0.00 0.00 56 1009.2
20260505083937 62 296 15.0 26.0 0.00 0.00 0.00 56 1009.2
20260505083839 62 277 13.0 26.0 0.00 0.00 0.00 56 1009.2
20260505083738 62 265 15.0 26.0 0.00 0.00 0.00 56 1009.2
20260505083636 62 261 13.0 26.0 0.00 0.00 0.00 56 1009.2
20260505083535 62 239 12.0 20.0 0.00 0.00 0.00 56 1009.2
20260505083434 62 284 16.0 21.0 0.00 0.00 0.00 56 1009.2
20260505083352 62 237 13.0 22.0 0.00 0.00 0.00 56 1009.2
20260505083242 62 243 9.0 24.0 0.00 0.00 0.00 56 1009.2
20260505083151 62 306 13.0 24.0 0.00 0.00 0.00 56 1009.2
20260505083032 63 264 11.0 24.0 0.00 0.00 0.00 55 1009.2
20260505082930 63 253 15.0 24.0 0.00 0.00 0.00 55 1009.2
20260505082829 63 232 12.0 24.0 0.00 0.00 0.00 55 1009.3
20260505082746 63 234 11.0 24.0 0.00 0.00 0.00 55 1009.3
20260505082643 63 326 10.0 24.0 0.00 0.00 0.00 55 1009.3
20260505082542 63 284 13.0 24.0 0.00 0.00 0.00 54 1009.3
20260505082440 63 270 14.0 24.0 0.00 0.00 0.00 54 1009.3
20260505082342 63 270 9.0 22.0 0.00 0.00 0.00 54 1009.3
20260505082239 63 257 10.0 22.0 0.00 0.00 0.00 54 1009.3
20260505082138 63 215 11.0 22.0 0.00 0.00 0.00 54 1009.3
20260505082036 63 278 13.0 22.0 0.00 0.00 0.00 54 1009.3
20260505081935 63 224 12.0 22.0 0.00 0.00 0.00 54 1009.3
20260505081853 63 289 14.0 22.0 0.00 0.00 0.00 54 1009.3
20260505081731 63 232 8.0 21.0 0.00 0.00 0.00 54 1009.3
20260505081700 63 287 10.0 21.0 0.00 0.00 0.00 54 1009.3
20260505081538 63 247 10.0 20.0 0.00 0.00 0.00 53 1009.3
20260505081439 63 247 13.0 20.0 0.00 0.00 0.00 53 1009.3
20260505081338 63 274 10.0 25.0 0.00 0.00 0.00 53 1009.3
20260505081236 63 328 9.0 25.0 0.00 0.00 0.00 53 1009.3
20260505081133 63 295 13.0 25.0 0.00 0.00 0.00 53 1009.3
20260505081032 63 288 11.0 25.0 0.00 0.00 0.00 53 1009.3
20260505080931 63 230 14.0 25.0 0.00 0.00 0.00 53 1009.3
20260505080849 63 250 11.0 25.0 0.00 0.00 0.00 53 1009.3
20260505080730 63 193 9.0 25.0 0.00 0.00 0.00 53 1009.3
20260505080628 63 254 12.0 25.0 0.00 0.00 0.00 53 1009.3
20260505080527 63 265 13.0 25.0 0.00 0.00 0.00 53 1009.3
20260505080425 63 233 12.0 22.0 0.00 0.00 0.00 53 1009.3
20260505080326 63 250 12.0 22.0 0.00 0.00 0.00 53 1009.3
20260505080236 63 268 13.0 22.0 0.00 0.00 0.00 52 1009.3
20260505080147 63 271 13.0 22.0 0.00 0.00 0.00 52 1009.3
20260505080044 63 246 17.0 22.0 0.00 0.00 0.00 52 1009.3
20260505075944 64 274 17.0 22.0 0.00 0.00 0.00 52 1009.3
20260505075901 64 272 16.0 22.0 0.00 0.00 0.00 52 1009.6
20260505075738 64 260 12.0 22.0 0.00 0.00 0.00 52 1009.6
20260505075638 64 256 9.0 22.0 0.00 0.00 0.00 52 1009.6
20260505075536 64 271 12.0 22.0 0.00 0.00 0.00 52 1009.6
20260505075434 64 206 13.0 22.0 0.00 0.00 0.00 52 1009.6
20260505075333 64 267 11.0 22.0 0.00 0.00 0.00 51 1009.6
20260505075230 64 304 11.0 22.0 0.00 0.00 0.00 51 1009.6
20260505075136 64 250 11.0 22.0 0.00 0.00 0.00 51 1009.6
20260505075055 64 292 14.0 22.0 0.00 0.00 0.00 51 1009.6
20260505074952 64 264 15.0 22.0 0.00 0.00 0.00 51 1009.6
20260505074829 64 270 11.0 21.0 0.00 0.00 0.00 51 1009.6
20260505074738 64 270 15.0 21.0 0.00 0.00 0.00 51 1009.6
20260505074647 64 272 11.0 21.0 0.00 0.00 0.00 51 1009.6
20260505074545 64 284 10.0 21.0 0.00 0.00 0.00 51 1009.6
20260505074504 64 288 12.0 21.0 0.00 0.00 0.00 51 1009.6
20260505074401 64 224 12.0 24.0 0.00 0.00 0.00 51 1009.7
20260505074243 64 274 13.0 26.0 0.00 0.00 0.00 50 1009.7
20260505074142 64 302 15.0 26.0 0.00 0.00 0.00 50 1009.7
20260505074040 64 274 15.0 26.0 0.00 0.00 0.00 50 1009.7
20260505073939 64 332 12.0 26.0 0.00 0.00 0.00 50 1009.7
20260505073838 64 206 14.0 26.0 0.00 0.00 0.00 50 1009.7
20260505073757 64 272 13.0 26.0 0.00 0.00 0.00 50 1009.7
20260505073634 64 308 10.0 26.0 0.00 0.00 0.00 50 1009.7
20260505073539 64 263 13.0 26.0 0.00 0.00 0.00 50 1009.7
20260505073438 64 285 19.0 26.0 0.00 0.00 0.00 50 1009.7
20260505073336 64 264 11.0 25.0 0.00 0.00 0.00 50 1009.7
20260505073235 64 247 12.0 25.0 0.00 0.00 0.00 50 1009.7
20260505073207 64 234 15.0 25.0 0.00 0.00 0.00 50 1009.7
20260505073043 64 258 15.0 25.0 0.00 0.00 0.00 49 1009.7
20260505072940 64 268 12.0 25.0 0.00 0.00 0.00 49 1009.7
20260505072824 64 267 15.0 25.0 0.00 0.00 0.00 49 1009.6
20260505072743 64 234 13.0 25.0 0.00 0.00 0.00 49 1009.6
20260505072642 64 304 11.0 25.0 0.00 0.00 0.00 49 1009.6
20260505072541 64 246 11.0 25.0 0.00 0.00 0.00 49 1009.6
20260505072500 64 292 8.0 25.0 0.00 0.00 0.00 49 1009.6
20260505072359 64 315 10.0 25.0 0.00 0.00 0.00 49 1009.6
20260505072237 64 270 12.0 25.0 0.00 0.00 0.00 49 1009.6
20260505072135 64 275 9.0 25.0 0.00 0.00 0.00 49 1009.6
20260505072032 64 272 9.0 25.0 0.00 0.00 0.00 50 1009.6
20260505071935 64 282 12.0 21.0 0.00 0.00 0.00 49 1009.6
20260505071833 64 271 13.0 21.0 0.00 0.00 0.00 49 1009.6
20260505071742 64 260 11.0 21.0 0.00 0.00 0.00 50 1009.6
20260505071652 64 278 10.0 21.0 0.00 0.00 0.00 49 1009.6
20260505071528 64 278 11.0 26.0 0.00 0.00 0.00 49 1009.6
20260505071445 64 292 14.0 26.0 0.00 0.00 0.00 49 1009.6
20260505071404 64 271 13.0 26.0 0.00 0.00 0.00 49 1009.8
20260505071242 64 278 14.0 26.0 0.00 0.00 0.00 49 1009.8
20260505071144 64 294 15.0 26.0 0.00 0.00 0.00 49 1009.8
20260505071103 64 248 15.0 26.0 0.00 0.00 0.00 49 1009.8
20260505070939 64 284 12.0 26.0 0.00 0.00 0.00 49 1009.8
20260505070858 64 246 16.0 26.0 0.00 0.00 0.00 49 1009.8
20260505070755 64 244 15.0 26.0 0.00 0.00 0.00 49 1009.8
20260505070654 64 313 14.0 26.0 0.00 0.00 0.00 49 1009.8
20260505070531 64 320 15.0 25.0 0.00 0.00 0.00 49 1009.8
20260505070429 64 302 14.0 25.0 0.00 0.00 0.00 49 1009.8
20260505070347 64 289 15.0 25.0 0.00 0.00 0.00 49 1009.8
20260505070245 64 308 14.0 25.0 0.00 0.00 0.00 49 1009.8
20260505070157 64 313 11.0 25.0 0.00 0.00 0.00 49 1009.8
20260505070058 64 304 11.0 25.0 0.00 0.00 0.00 49 1009.8
20260505065940 64 287 13.0 25.0 0.00 0.00 0.00 49 1009.8
20260505065838 64 296 16.0 25.0 0.00 0.00 0.00 49 1009.8
20260505065756 64 322 16.0 25.0 0.00 0.00 0.00 50 1009.8
20260505065634 64 277 12.0 21.0 0.00 0.00 0.00 50 1009.8
20260505065532 64 295 10.0 25.0 0.00 0.00 0.00 50 1009.8
20260505065430 64 291 12.0 25.0 0.00 0.00 0.00 50 1009.8
20260505065332 64 309 10.0 25.0 0.00 0.00 0.00 50 1009.8
20260505065231 64 316 13.0 25.0 0.00 0.00 0.00 50 1009.8
20260505065129 64 309 12.0 25.0 0.00 0.00 0.00 50 1009.8
20260505065028 64 250 8.0 25.0 0.00 0.00 0.00 50 1009.8
20260505064927 64 305 11.0 25.0 0.00 0.00 0.00 50 1009.8
20260505064829 64 308 13.0 25.0 0.00 0.00 0.00 50 1009.8
20260505064727 64 285 15.0 25.0 0.00 0.00 0.00 50 1009.8
20260505064701 64 268 17.0 25.0 0.00 0.00 0.00 50 1009.8
20260505064559 64 292 17.0 26.0 0.00 0.00 0.00 50 1009.8
20260505064436 64 274 16.0 26.0 0.00 0.00 0.00 50 1009.8
20260505064353 64 285 14.0 26.0 0.00 0.00 0.00 50 1009.9
20260505064251 64 267 11.0 26.0 0.00 0.00 0.00 50 1009.9
20260505064128 64 232 11.0 26.0 0.00 0.00 0.00 50 1009.9
20260505064026 64 264 13.0 26.0 0.00 0.00 0.00 50 1009.9
20260505063926 64 291 15.0 26.0 0.00 0.00 0.00 50 1009.9
20260505063831 64 281 14.0 26.0 0.00 0.00 0.00 50 1009.9
20260505063730 64 236 14.0 26.0 0.00 0.00 0.00 50 1009.9
20260505063629 64 296 13.0 25.0 0.00 0.00 0.00 50 1009.9
20260505063528 64 284 17.0 25.0 0.00 0.00 0.00 50 1009.9
20260505063426 64 196 8.0 24.0 0.00 0.00 0.00 50 1009.9
20260505063324 64 268 12.0 24.0 0.00 0.00 0.00 50 1009.9
20260505063233 64 198 13.0 24.0 0.00 0.00 0.00 51 1009.9
20260505063147 64 209 16.0 28.0 0.00 0.00 0.00 50 1009.9
20260505063024 64 224 15.0 28.0 0.00 0.00 0.00 50 1009.9
20260505062943 64 268 14.0 28.0 0.00 0.00 0.00 50 1009.9
20260505062841 64 217 11.0 28.0 0.00 0.00 0.00 51 1010.0
20260505062738 64 265 10.0 28.0 0.00 0.00 0.00 51 1010.0
20260505062636 64 298 13.0 28.0 0.00 0.00 0.00 50 1010.0
20260505062534 64 264 10.0 28.0 0.00 0.00 0.00 50 1010.0
20260505062438 64 275 10.0 28.0 0.00 0.00 0.00 51 1010.0
20260505062337 64 274 12.0 28.0 0.00 0.00 0.00 50 1010.0
20260505062235 64 312 16.0 28.0 0.00 0.00 0.00 50 1010.0
20260505062133 64 237 12.0 26.0 0.00 0.00 0.00 51 1010.0
20260505062033 64 241 12.0 26.0 0.00 0.00 0.00 51 1010.0
20260505061930 64 289 14.0 26.0 0.00 0.00 0.00 51 1010.0
20260505061828 64 265 12.0 26.0 0.00 0.00 0.00 51 1010.0
20260505061751 64 254 13.0 26.0 0.00 0.00 0.00 50 1010.0
20260505061659 64 271 13.0 26.0 0.00 0.00 0.00 50 1010.0
20260505061541 64 312 15.0 26.0 0.00 0.00 0.00 51 1010.0
20260505061439 64 243 14.0 26.0 0.00 0.00 0.00 51 1010.0
20260505061338 64 301 17.0 26.0 0.00 0.00 0.00 50 1010.0
20260505061236 64 311 15.0 26.0 0.00 0.00 0.00 50 1010.0
20260505061135 64 232 8.0 26.0 0.00 0.00 0.00 51 1010.0
20260505061037 64 240 10.0 26.0 0.00 0.00 0.00 51 1010.0
20260505060935 64 289 14.0 26.0 0.00 0.00 0.00 51 1010.0
20260505060854 64 302 19.0 26.0 0.00 0.00 0.00 50 1010.0
20260505060733 64 287 13.0 26.0 0.00 0.00 0.00 50 1010.0
20260505060632 64 288 13.0 26.0 0.00 0.00 0.00 51 1010.0
20260505060532 64 275 16.0 26.0 0.00 0.00 0.00 51 1010.0
20260505060431 64 298 13.0 26.0 0.00 0.00 0.00 50 1010.0
20260505060349 64 247 12.0 26.0 0.00 0.00 0.00 51 1010.0
20260505060243 64 289 17.0 26.0 0.00 0.00 0.00 50 1010.0
20260505060154 64 264 16.0 26.0 0.00 0.00 0.00 51 1010.0
20260505060030 64 253 14.0 25.0 0.00 0.00 0.00 51 1010.0
20260505055948 64 295 14.0 25.0 0.00 0.00 0.00 51 1010.0
20260505055825 64 212 13.0 25.0 0.00 0.00 0.00 51 1010.1
20260505055743 64 301 14.0 25.0 0.00 0.00 0.00 51 1010.1
20260505055641 64 250 12.0 22.0 0.00 0.00 0.00 51 1010.1
20260505055538 64 246 14.0 22.0 0.00 0.00 0.00 51 1010.1
20260505055441 64 241 13.0 22.0 0.00 0.00 0.00 51 1010.1
20260505055340 64 289 10.0 22.0 0.00 0.00 0.00 51 1010.1
20260505055238 64 294 13.0 21.0 0.00 0.00 0.00 51 1010.1
20260505055157 64 271 10.0 21.0 0.00 0.00 0.00 51 1010.1
20260505055034 64 261 11.0 22.0 0.00 0.00 0.00 51 1010.1
20260505054932 64 287 14.0 22.0 0.00 0.00 0.00 51 1010.1
20260505054830 64 223 12.0 24.0 0.00 0.00 0.00 51 1010.1
20260505054752 64 270 11.0 24.0 0.00 0.00 0.00 51 1010.1
20260505054720 64 332 11.0 24.0 0.00 0.00 0.00 51 1010.1
20260505054537 64 217 11.0 24.0 0.00 0.00 0.00 52 1010.1
20260505054436 64 227 10.0 24.0 0.00 0.00 0.00 51 1010.1
20260505054335 64 291 11.0 24.0 0.00 0.00 0.00 51 1010.2
20260505054233 64 282 9.0 24.0 0.00 0.00 0.00 51 1010.2
20260505054131 64 239 11.0 24.0 0.00 0.00 0.00 52 1010.2
20260505054035 64 277 11.0 24.0 0.00 0.00 0.00 52 1010.2
20260505053933 64 274 9.0 24.0 0.00 0.00 0.00 52 1010.2
20260505053832 64 288 9.0 20.0 0.00 0.00 0.00 52 1010.2
20260505053731 64 272 13.0 20.0 0.00 0.00 0.00 52 1010.2
20260505053628 64 306 9.0 20.0 0.00 0.00 0.00 52 1010.2
20260505053525 64 301 12.0 20.0 0.00 0.00 0.00 52 1010.2
20260505053424 64 254 13.0 20.0 0.00 0.00 0.00 52 1010.2
20260505053327 64 287 15.0 20.0 0.00 0.00 0.00 52 1010.2
20260505053225 64 302 9.0 19.0 0.00 0.00 0.00 52 1010.2
20260505053155 64 271 7.0 19.0 0.00 0.00 0.00 52 1010.2
20260505053032 64 270 10.0 19.0 0.00 0.00 0.00 52 1010.2
20260505052930 64 253 13.0 22.0 0.00 0.00 0.00 52 1010.2
20260505052828 64 239 9.0 22.0 0.00 0.00 0.00 52 1010.3
20260505052747 64 296 12.0 22.0 0.00 0.00 0.00 52 1010.3
20260505052643 64 251 11.0 22.0 0.00 0.00 0.00 52 1010.3
20260505052526 64 256 7.0 22.0 0.00 0.00 0.00 52 1010.3
20260505052447 64 270 9.0 22.0 0.00 0.00 0.00 53 1010.3
20260505052404 64 271 10.0 22.0 0.00 0.00 0.00 52 1010.3
20260505052242 64 223 11.0 22.0 0.00 0.00 0.00 52 1010.3
20260505052202 64 292 13.0 22.0 0.00 0.00 0.00 52 1010.3
20260505052039 64 296 13.0 22.0 0.00 0.00 0.00 52 1010.3
20260505051938 64 304 10.0 21.0 0.00 0.00 0.00 53 1010.3
20260505051837 64 258 9.0 21.0 0.00 0.00 0.00 52 1010.3
20260505051739 64 288 9.0 21.0 0.00 0.00 0.00 53 1010.3
20260505051710 64 213 11.0 21.0 0.00 0.00 0.00 53 1010.3
20260505051546 64 208 10.0 21.0 0.00 0.00 0.00 52 1010.3
20260505051504 64 299 9.0 21.0 0.00 0.00 0.00 52 1010.3
20260505051342 64 315 9.0 21.0 0.00 0.00 0.00 52 1010.4
20260505051239 64 212 12.0 21.0 0.00 0.00 0.00 52 1010.4
20260505051139 64 316 15.0 21.0 0.00 0.00 0.00 52 1010.4
20260505051038 64 261 13.0 21.0 0.00 0.00 0.00 52 1010.4
20260505050940 64 332 10.0 20.0 0.00 0.00 0.00 52 1010.4
20260505050838 64 278 10.0 20.0 0.00 0.00 0.00 52 1010.4
20260505050737 64 280 8.0 20.0 0.00 0.00 0.00 52 1010.4
20260505050636 64 257 10.0 20.0 0.00 0.00 0.00 52 1010.4
20260505050535 64 312 9.0 19.0 0.00 0.00 0.00 51 1010.4
20260505050434 64 257 14.0 24.0 0.00 0.00 0.00 51 1010.4
20260505050352 64 280 15.0 24.0 0.00 0.00 0.00 52 1010.4
20260505050305 64 267 9.0 24.0 0.00 0.00 0.00 52 1010.4
20260505050155 64 246 11.0 24.0 0.00 0.00 0.00 51 1010.4
20260505041741 65 316 9.0 21.0 0.00 0.00 0.00 52 1010.3
20260505041649 65 227 6.0 21.0 0.00 0.00 0.00 52 1010.3
20260505041526 65 250 10.0 21.0 0.00 0.00 0.00 52 1010.3
20260505041425 65 282 16.0 21.0 0.00 0.00 0.00 52 1010.3
20260505041343 65 234 14.0 20.0 0.00 0.00 0.00 52 1009.5
20260505041302 65 247 10.0 21.0 0.00 0.00 0.00 52 1009.5
20260505041124 65 274 9.0 21.0 0.00 0.00 0.00 52 1009.5
20260505041043 65 227 9.0 21.0 0.00 0.00 0.00 52 1009.5
20260505040941 65 280 11.0 21.0 0.00 0.00 0.00 53 1009.5
20260505040841 65 264 9.0 21.0 0.00 0.00 0.00 52 1009.5
20260505040738 65 271 12.0 21.0 0.00 0.00 0.00 52 1009.5
20260505040637 65 229 12.0 21.0 0.00 0.00 0.00 53 1009.5
20260505040536 65 282 9.0 21.0 0.00 0.00 0.00 53 1009.5
20260505040441 65 275 11.0 21.0 0.00 0.00 0.00 53 1009.5
20260505040339 65 263 11.0 21.0 0.00 0.00 0.00 53 1009.5
20260505040239 65 254 13.0 21.0 0.00 0.00 0.00 53 1009.5
20260505040209 65 227 13.0 21.0 0.00 0.00 0.00 53 1009.5
20260505040044 65 285 14.0 21.0 0.00 0.00 0.00 53 1009.5
20260505040004 65 274 11.0 19.0 0.00 0.00 0.00 53 1009.5
20260505035900 65 272 9.0 19.0 0.00 0.00 0.00 53 1009.5
20260505035738 65 277 13.0 19.0 0.00 0.00 0.00 54 1009.5
20260505035636 65 278 13.0 19.0 0.00 0.00 0.00 54 1009.5
20260505035540 65 256 13.0 19.0 0.00 0.00 0.00 53 1009.5
20260505035458 65 270 11.0 19.0 0.00 0.00 0.00 54 1009.5
20260505035336 65 243 10.0 19.0 0.00 0.00 0.00 54 1009.5
20260505035235 65 299 13.0 19.0 0.00 0.00 0.00 54 1009.5
20260505035134 65 271 12.0 19.0 0.00 0.00 0.00 54 1009.5
20260505035032 65 296 11.0 18.0 0.00 0.00 0.00 53 1009.5
20260505034931 65 272 10.0 18.0 0.00 0.00 0.00 53 1009.5
20260505034834 65 264 9.0 18.0 0.00 0.00 0.00 53 1009.5
20260505034732 65 316 9.0 18.0 0.00 0.00 0.00 54 1009.5
20260505034703 65 302 11.0 18.0 0.00 0.00 0.00 54 1009.5
20260505034541 65 311 10.0 18.0 0.00 0.00 0.00 53 1009.5
20260505034437 65 312 8.0 18.0 0.00 0.00 0.00 54 1009.5
20260505034337 66 294 11.0 18.0 0.00 0.00 0.00 53 1010.4
20260505034237 66 253 14.0 22.0 0.00 0.00 0.00 53 1010.4
20260505034139 66 285 13.0 22.0 0.00 0.00 0.00 53 1010.4
20260505034037 66 260 9.0 22.0 0.00 0.00 0.00 54 1010.4
20260505033935 66 284 9.0 22.0 0.00 0.00 0.00 53 1010.4
20260505033835 66 274 9.0 22.0 0.00 0.00 0.00 53 1010.4
20260505033752 66 248 6.0 22.0 0.00 0.00 0.00 53 1010.4
20260505033630 66 292 7.0 22.0 0.00 0.00 0.00 53 1010.4
20260505033529 66 320 9.0 22.0 0.00 0.00 0.00 53 1010.4
20260505033432 66 296 14.0 22.0 0.00 0.00 0.00 53 1010.4
20260505033331 66 315 9.0 21.0 0.00 0.00 0.00 53 1010.4
20260505033239 66 320 9.0 21.0 0.00 0.00 0.00 53 1010.4
20260505033149 66 229 12.0 21.0 0.00 0.00 0.00 53 1010.4
20260505033026 66 282 9.0 21.0 0.00 0.00 0.00 53 1010.4
20260505032924 66 260 9.0 21.0 0.00 0.00 0.00 53 1010.4
20260505032843 66 268 12.0 21.0 0.00 0.00 0.00 53 1010.6
20260505032726 66 272 10.0 18.0 0.00 0.00 0.00 53 1010.6
20260505032624 66 282 10.0 18.0 0.00 0.00 0.00 53 1010.6
20260505032522 66 299 7.0 18.0 0.00 0.00 0.00 53 1010.6
20260505032443 66 305 6.0 18.0 0.00 0.00 0.00 53 1010.6
20260505032342 66 195 7.0 18.0 0.00 0.00 0.00 53 1010.6
20260505032240 66 264 8.0 18.0 0.00 0.00 0.00 53 1010.6
20260505032139 66 292 11.0 18.0 0.00 0.00 0.00 53 1010.6
20260505032041 66 301 12.0 18.0 0.00 0.00 0.00 53 1010.6
20260505031959 66 329 11.0 18.0 0.00 0.00 0.00 53 1010.6
20260505031856 66 243 10.0 18.0 0.00 0.00 0.00 53 1010.6
20260505031732 66 322 13.0 18.0 0.00 0.00 0.00 53 1010.6
20260505031702 66 302 13.0 18.0 0.00 0.00 0.00 52 1010.6
20260505031539 66 289 11.0 18.0 0.00 0.00 0.00 52 1010.6
20260505031437 66 256 11.0 18.0 0.00 0.00 0.00 52 1010.6
20260505031335 66 239 9.0 18.0 0.00 0.00 0.00 52 1009.8
20260505031238 66 264 10.0 18.0 0.00 0.00 0.00 52 1009.8
20260505031136 66 288 8.0 18.0 0.00 0.00 0.00 51 1009.8
20260505031035 66 315 9.0 18.0 0.00 0.00 0.00 52 1009.8
20260505030954 66 284 10.0 18.0 0.00 0.00 0.00 52 1009.8
20260505030831 66 330 9.0 18.0 0.00 0.00 0.00 52 1009.8
20260505030729 66 287 9.0 17.0 0.00 0.00 0.00 51 1009.8
20260505030628 66 280 10.0 16.0 0.00 0.00 0.00 51 1009.8
20260505030530 66 326 8.0 14.0 0.00 0.00 0.00 52 1009.8
20260505030428 66 295 9.0 17.0 0.00 0.00 0.00 51 1009.8
20260505030328 66 256 9.0 19.0 0.00 0.00 0.00 51 1009.8
20260505030226 66 244 9.0 19.0 0.00 0.00 0.00 51 1009.8
20260505030157 66 285 10.0 19.0 0.00 0.00 0.00 51 1009.8
20260505030037 66 263 10.0 19.0 0.00 0.00 0.00 51 1009.8
20260505025935 66 267 7.0 19.0 0.00 0.00 0.00 51 1009.8
20260505025834 66 316 8.0 19.0 0.00 0.00 0.00 51 1009.9
20260505025735 66 224 8.0 19.0 0.00 0.00 0.00 51 1009.9
20260505025634 66 295 9.0 19.0 0.00 0.00 0.00 51 1009.9
20260505025532 66 298 13.0 19.0 0.00 0.00 0.00 51 1009.9
20260505025430 66 326 10.0 18.0 0.00 0.00 0.00 51 1009.9
20260505025329 66 288 7.0 18.0 0.00 0.00 0.00 51 1009.9
20260505025227 66 330 10.0 18.0 0.00 0.00 0.00 51 1009.9
20260505025146 66 309 8.0 18.0 0.00 0.00 0.00 51 1009.9
20260505025027 66 329 9.0 18.0 0.00 0.00 0.00 51 1009.9
20260505024929 66 311 10.0 17.0 0.00 0.00 0.00 51 1009.9
20260505024828 66 336 7.0 17.0 0.00 0.00 0.00 51 1009.9
20260505024727 66 251 9.0 17.0 0.00 0.00 0.00 51 1009.9
20260505024656 66 301 10.0 17.0 0.00 0.00 0.00 51 1009.9
20260505024534 66 268 9.0 17.0 0.00 0.00 0.00 51 1009.9
20260505024432 66 308 10.0 20.0 0.00 0.00 0.00 51 1009.9
20260505024335 66 304 10.0 20.0 0.00 0.00 0.00 51 1009.8
20260505024234 66 325 9.0 20.0 0.00 0.00 0.00 51 1009.8
20260505024133 66 320 9.0 20.0 0.00 0.00 0.00 51 1009.8
20260505024031 66 312 8.0 20.0 0.00 0.00 0.00 51 1009.8
20260505023929 66 281 9.0 20.0 0.00 0.00 0.00 51 1009.8
20260505023829 66 326 11.0 20.0 0.00 0.00 0.00 51 1009.8
20260505023732 66 313 8.0 20.0 0.00 0.00 0.00 51 1009.8
20260505023629 66 294 12.0 20.0 0.00 0.00 0.00 51 1009.8
20260505023529 66 229 11.0 18.0 0.00 0.00 0.00 51 1009.8
20260505023426 66 264 6.0 18.0 0.00 0.00 0.00 50 1009.8
20260505023325 66 294 7.0 18.0 0.00 0.00 0.00 50 1009.8
20260505023224 66 299 11.0 18.0 0.00 0.00 0.00 51 1009.8
20260505023153 66 298 9.0 18.0 0.00 0.00 0.00 51 1009.8
20260505023034 66 328 9.0 18.0 0.00 0.00 0.00 51 1009.8
20260505022932 66 294 11.0 19.0 0.00 0.00 0.00 50 1009.8
20260505022831 66 289 10.0 19.0 0.00 0.00 0.00 50 1009.7
20260505022730 66 305 7.0 19.0 0.00 0.00 0.00 51 1009.7
20260505022627 66 311 10.0 19.0 0.00 0.00 0.00 51 1009.7
20260505022527 66 313 8.0 19.0 0.00 0.00 0.00 50 1009.7
20260505022429 66 256 12.0 19.0 0.00 0.00 0.00 50 1009.7
20260505022332 66 282 6.0 19.0 0.00 0.00 0.00 51 1009.7
20260505022230 66 304 10.0 19.0 0.00 0.00 0.00 51 1009.7
20260505022129 66 280 9.0 19.0 0.00 0.00 0.00 50 1009.7
20260505022027 66 268 9.0 17.0 0.00 0.00 0.00 51 1009.7
20260505021944 66 301 8.0 17.0 0.00 0.00 0.00 51 1009.7
20260505021842 66 322 9.0 17.0 0.00 0.00 0.00 51 1009.7
20260505021725 66 306 9.0 17.0 0.00 0.00 0.00 51 1009.7
20260505021655 66 305 7.0 17.0 0.00 0.00 0.00 51 1009.7
20260505021532 66 311 8.0 17.0 0.00 0.00 0.00 51 1009.7
20260505021430 66 325 9.0 17.0 0.00 0.00 0.00 51 1009.7
20260505021349 66 260 11.0 17.0 0.00 0.00 0.00 51 1009.7
20260505021307 66 282 12.0 17.0 0.00 0.00 0.00 51 1009.7
20260505021205 66 292 13.0 17.0 0.00 0.00 0.00 50 1009.7
20260505021103 66 289 11.0 17.0 0.00 0.00 0.00 50 1009.7
20260505020942 66 234 12.0 17.0 0.00 0.00 0.00 50 1009.7
20260505020843 66 291 12.0 17.0 0.00 0.00 0.00 51 1009.7
20260505020742 66 295 12.0 17.0 0.00 0.00 0.00 50 1009.7
20260505020642 66 313 8.0 17.0 0.00 0.00 0.00 50 1009.7
20260505020539 66 248 7.0 17.0 0.00 0.00 0.00 50 1009.7
20260505020439 66 230 10.0 17.0 0.00 0.00 0.00 50 1009.7
20260505020337 66 318 9.0 17.0 0.00 0.00 0.00 50 1009.7
20260505020236 66 291 8.0 17.0 0.00 0.00 0.00 50 1009.7
20260505020210 66 312 11.0 17.0 0.00 0.00 0.00 50 1009.7
20260505020027 66 229 9.0 17.0 0.00 0.00 0.00 50 1009.7
20260505015947 67 322 10.0 17.0 0.00 0.00 0.00 51 1009.7
20260505015825 67 281 9.0 18.0 0.00 0.00 0.00 50 1009.6
20260505015745 67 323 9.0 18.0 0.00 0.00 0.00 50 1009.6
20260505015705 67 240 8.0 18.0 0.00 0.00 0.00 50 1009.6
20260505015542 67 318 8.0 18.0 0.00 0.00 0.00 50 1009.6
20260505015440 67 281 8.0 18.0 0.00 0.00 0.00 50 1009.6
20260505015342 67 304 6.0 18.0 0.00 0.00 0.00 50 1009.6
20260505015241 67 285 8.0 18.0 0.00 0.00 0.00 50 1009.6
20260505015140 67 282 11.0 18.0 0.00 0.00 0.00 50 1009.6
20260505015058 67 257 12.0 18.0 0.00 0.00 0.00 50 1009.6
20260505014935 67 277 11.0 17.0 0.00 0.00 0.00 50 1009.6
20260505014853 67 264 11.0 17.0 0.00 0.00 0.00 50 1009.6
20260505014751 67 326 10.0 17.0 0.00 0.00 0.00 50 1009.6
20260505014720 67 329 11.0 17.0 0.00 0.00 0.00 50 1009.6
20260505014538 67 320 11.0 17.0 0.00 0.00 0.00 50 1009.6
20260505014442 67 291 10.0 15.0 0.00 0.00 0.00 50 1009.6
20260505014340 67 329 11.0 15.0 0.00 0.00 0.00 50 1009.6
20260505014257 67 265 10.0 15.0 0.00 0.00 0.00 50 1009.6
20260505014135 67 298 9.0 15.0 0.00 0.00 0.00 50 1009.6
20260505014033 67 284 9.0 15.0 0.00 0.00 0.00 50 1009.6
20260505013932 67 260 9.0 14.0 0.00 0.00 0.00 49 1009.6
20260505013831 67 284 10.0 14.0 0.00 0.00 0.00 49 1009.6
20260505013753 67 330 8.0 17.0 0.00 0.00 0.00 50 1009.6
20260505013629 67 294 7.0 17.0 0.00 0.00 0.00 49 1009.6
20260505013528 67 319 10.0 17.0 0.00 0.00 0.00 49 1009.6
20260505013426 67 304 9.0 17.0 0.00 0.00 0.00 49 1009.6
20260505013325 67 323 8.0 17.0 0.00 0.00 0.00 48 1009.6
20260505013235 67 299 8.0 17.0 0.00 0.00 0.00 48 1009.6
20260505013146 67 330 8.0 17.0 0.00 0.00 0.00 48 1009.6
20260505013027 67 291 11.0 17.0 0.00 0.00 0.00 48 1009.6
20260505012944 67 326 10.0 17.0 0.00 0.00 0.00 48 1009.6
20260505012903 67 284 10.0 17.0 0.00 0.00 0.00 48 1009.6
20260505012801 67 287 9.0 14.0 0.00 0.00 0.00 48 1009.6
20260505012636 67 302 8.0 14.0 0.00 0.00 0.00 48 1009.6
20260505012554 67 330 8.0 14.0 0.00 0.00 0.00 48 1009.6
20260505012452 67 323 9.0 14.0 0.00 0.00 0.00 48 1009.6
20260505012330 67 329 11.0 14.0 0.00 0.00 0.00 48 1009.6
20260505012252 67 280 9.0 14.0 0.00 0.00 0.00 48 1009.6
20260505012129 67 315 9.0 14.0 0.00 0.00 0.00 47 1009.6
20260505012032 67 332 9.0 14.0 0.00 0.00 0.00 48 1009.6
20260505011952 67 333 8.0 17.0 0.00 0.00 0.00 48 1009.6
20260505011830 67 320 5.0 17.0 0.00 0.00 0.00 48 1009.6
20260505011741 67 313 7.0 17.0 0.00 0.00 0.00 48 1009.6
20260505011651 67 294 8.0 17.0 0.00 0.00 0.00 48 1009.6
20260505011529 67 291 5.0 17.0 0.00 0.00 0.00 47 1009.6
20260505011447 67 268 7.0 17.0 0.00 0.00 0.00 47 1009.6
20260505011325 67 195 9.0 17.0 0.00 0.00 0.00 47 1009.6
20260505011227 68 240 8.0 17.0 0.00 0.00 0.00 48 1009.6
20260505011146 68 335 10.0 17.0 0.00 0.00 0.00 47 1009.6
20260505011042 68 332 11.0 17.0 0.00 0.00 0.00 47 1009.6
20260505010940 68 325 9.0 17.0 0.00 0.00 0.00 47 1009.6
20260505010839 68 329 11.0 17.0 0.00 0.00 0.00 48 1009.6
20260505010737 68 322 10.0 17.0 0.00 0.00 0.00 47 1009.6
20260505010637 68 304 6.0 14.0 0.00 0.00 0.00 47 1009.6
20260505010535 68 337 9.0 14.0 0.00 0.00 0.00 47 1009.6
20260505010436 68 328 6.0 14.0 0.00 0.00 0.00 47 1009.6
20260505010335 68 301 7.0 14.0 0.00 0.00 0.00 47 1009.6
20260505010305 68 312 6.0 14.0 0.00 0.00 0.00 47 1009.6
20260505010154 68 329 6.0 14.0 0.00 0.00 0.00 47 1009.6
20260505010050 68 302 6.0 14.0 0.00 0.00 0.00 47 1009.6
20260505005948 68 309 9.0 14.0 0.00 0.00 0.00 47 1009.6
20260505005825 68 301 6.0 13.0 0.00 0.00 0.00 46 1009.4
20260505005742 68 322 8.0 16.0 0.00 0.00 0.00 46 1009.4
20260505005700 68 309 7.0 16.0 0.00 0.00 0.00 46 1009.4
20260505005539 68 281 5.0 16.0 0.00 0.00 0.00 46 1009.4
20260505005441 68 332 7.0 16.0 0.00 0.00 0.00 47 1009.4
20260505005339 68 305 7.0 16.0 0.00 0.00 0.00 47 1009.4
20260505005237 68 328 8.0 16.0 0.00 0.00 0.00 46 1009.4
20260505005134 68 326 9.0 16.0 0.00 0.00 0.00 47 1009.4
20260505005034 68 313 7.0 17.0 0.00 0.00 0.00 47 1009.4
20260505004933 68 330 11.0 17.0 0.00 0.00 0.00 47 1009.4
20260505004851 68 325 12.0 17.0 0.00 0.00 0.00 47 1009.4
20260505004744 68 325 7.0 17.0 0.00 0.00 0.00 46 1009.4
20260505004655 68 316 9.0 17.0 0.00 0.00 0.00 46 1009.4
20260505004532 69 305 8.0 17.0 0.00 0.00 0.00 46 1009.4
20260505004430 69 329 8.0 17.0 0.00 0.00 0.00 46 1009.4
20260505004329 69 267 10.0 19.0 0.00 0.00 0.00 46 1009.4
20260505004228 69 296 8.0 19.0 0.00 0.00 0.00 46 1009.4
20260505004126 69 319 10.0 19.0 0.00 0.00 0.00 47 1009.4
20260505004027 69 311 7.0 19.0 0.00 0.00 0.00 47 1009.4
20260505003946 69 304 8.0 19.0 0.00 0.00 0.00 46 1009.4
20260505003904 69 330 9.0 19.0 0.00 0.00 0.00 46 1009.4
20260505003742 69 281 7.0 19.0 0.00 0.00 0.00 45 1009.4
20260505003641 69 316 8.0 19.0 0.00 0.00 0.00 45 1009.4
20260505003538 69 296 12.0 19.0 0.00 0.00 0.00 46 1009.4
20260505003437 69 326 8.0 13.0 0.00 0.00 0.00 46 1009.4
20260505003335 69 230 6.0 15.0 0.00 0.00 0.00 46 1009.4
20260505003235 69 320 7.0 15.0 0.00 0.00 0.00 46 1009.4
20260505003205 69 272 6.0 15.0 0.00 0.00 0.00 46 1009.4
20260505003041 69 271 9.0 15.0 0.00 0.00 0.00 46 1009.4
20260505002939 69 287 8.0 15.0 0.00 0.00 0.00 45 1009.4
20260505002838 69 294 6.0 15.0 0.00 0.00 0.00 45 1009.2
20260505002736 69 329 7.0 15.0 0.00 0.00 0.00 45 1009.2
20260505002635 69 328 7.0 15.0 0.00 0.00 0.00 45 1009.2
20260505002554 69 284 10.0 15.0 0.00 0.00 0.00 45 1009.2
20260505002434 69 330 8.0 14.0 0.00 0.00 0.00 46 1009.2
20260505002332 69 292 6.0 14.0 0.00 0.00 0.00 45 1009.2
20260505002231 69 285 6.0 14.0 0.00 0.00 0.00 46 1009.2
20260505002131 70 328 9.0 16.0 0.00 0.00 0.00 45 1009.2
20260505002029 70 308 9.0 16.0 0.00 0.00 0.00 44 1009.2
20260505001928 70 309 5.0 20.0 0.00 0.00 0.00 44 1009.2
20260505001830 70 282 5.0 20.0 0.00 0.00 0.00 44 1009.2
20260505001803 70 313 9.0 20.0 0.00 0.00 0.00 44 1009.2
20260505001651 70 325 8.0 20.0 0.00 0.00 0.00 44 1009.2
20260505001529 70 319 8.0 20.0 0.00 0.00 0.00 44 1009.2
20260505001426 70 288 7.0 20.0 0.00 0.00 0.00 45 1009.2
20260505001325 70 281 8.0 20.0 0.00 0.00 0.00 44 1009.2
20260505001224 70 316 8.0 20.0 0.00 0.00 0.00 45 1009.2
20260505001141 70 268 11.0 20.0 0.00 0.00 0.00 45 1009.2
20260505001024 70 275 10.0 18.0 0.00 0.00 0.00 45 1009.2
20260505000943 70 296 7.0 18.0 0.00 0.00 0.00 44 1009.2
20260505000842 70 257 5.0 18.0 0.00 0.00 0.00 44 1009.2
20260505000801 70 258 10.0 18.0 0.00 0.00 0.00 44 1009.2
20260505000639 70 278 11.0 18.0 0.00 0.00 0.00 45 1009.2
20260505000537 70 284 9.0 14.0 0.00 0.00 0.00 45 1009.2
20260505000435 70 264 6.0 14.0 0.00 0.00 0.00 45 1009.2
20260505000337 70 281 5.0 14.0 0.00 0.00 0.00 45 1009.2
20260505000235 70 251 4.0 14.0 0.00 0.00 0.00 45 1009.2
20260505000145 70 323 6.0 14.0 0.00 0.00 0.00 45 1009.2
20260505000041 70 291 6.0 14.0 0.00 0.00 0.00 44 1009.2
20260504235940 70 330 7.0 14.0 0.00 0.00 0.00 44 1009.2
20260504235858 70 312 11.0 14.0 0.00 0.00 0.00 45 1009.2
20260504235757 70 305 7.0 14.0 0.00 0.00 0.00 44 1009.2
20260504235635 70 272 9.0 14.0 0.00 0.00 0.00 44 1009.2
20260504235537 70 305 8.0 14.0 0.00 0.00 0.00 44 1009.2
20260504235439 70 264 9.0 14.0 0.00 0.00 0.00 44 1009.2
20260504235339 71 294 10.0 14.0 0.00 0.00 0.00 44 1009.2
20260504235258 71 305 8.0 18.0 0.00 0.00 0.00 45 1009.2
20260504235135 71 316 7.0 18.0 0.00 0.00 0.00 45 1009.2
20260504235033 71 328 6.0 18.0 0.00 0.00 0.00 44 1009.2
20260504234931 71 299 5.0 18.0 0.00 0.00 0.00 44 1009.2
20260504234831 71 328 4.0 19.0 0.00 0.00 0.00 44 1009.2
20260504234733 71 274 5.0 19.0 0.00 0.00 0.00 43 1009.2
20260504234701 71 318 10.0 21.0 0.00 0.00 0.00 44 1009.2
20260504234539 71 234 10.0 21.0 0.00 0.00 0.00 44 1009.2
20260504234437 71 257 10.0 21.0 0.00 0.00 0.00 43 1009.2
20260504234355 71 267 13.0 21.0 0.00 0.00 0.00 44 1009.2
20260504234233 71 309 7.0 21.0 0.00 0.00 0.00 44 1009.2
20260504234131 71 278 6.0 21.0 0.00 0.00 0.00 44 1009.2
20260504234033 71 258 11.0 21.0 0.00 0.00 0.00 43 1009.2
20260504233931 71 304 11.0 21.0 0.00 0.00 0.00 44 1009.2
20260504233830 71 281 13.0 21.0 0.00 0.00 0.00 45 1009.2
20260504233751 71 281 6.0 20.0 0.00 0.00 0.00 45 1009.2
20260504233629 71 301 9.0 20.0 0.00 0.00 0.00 45 1009.2
20260504233548 71 292 5.0 18.0 0.00 0.00 0.00 45 1009.2
20260504233505 71 305 10.0 18.0 0.00 0.00 0.00 46 1009.2
20260504233403 71 250 10.0 18.0 0.00 0.00 0.00 46 1009.2
20260504233302 71 308 4.0 18.0 0.00 0.00 0.00 46 1009.2
20260504233210 71 308 11.0 18.0 0.00 0.00 0.00 46 1009.2
20260504233030 71 311 9.0 18.0 0.00 0.00 0.00 45 1009.2
20260504232948 71 265 6.0 18.0 0.00 0.00 0.00 45 1009.2
20260504232824 71 222 5.0 18.0 0.00 0.00 0.00 45 1009.3
20260504232742 71 312 8.0 18.0 0.00 0.00 0.00 45 1009.3
20260504232641 71 258 7.0 18.0 0.00 0.00 0.00 45 1009.3
20260504232540 71 274 6.0 18.0 0.00 0.00 0.00 45 1009.3
20260504232459 71 248 8.0 18.0 0.00 0.00 0.00 44 1009.3
20260504232355 71 302 7.0 18.0 0.00 0.00 0.00 45 1009.3
20260504232253 72 289 7.0 18.0 0.00 0.00 0.00 45 1009.3
20260504232135 72 309 10.0 18.0 0.00 0.00 0.00 46 1009.3
20260504232033 72 320 11.0 17.0 0.00 0.00 0.00 46 1009.3
20260504231932 72 288 5.0 17.0 0.00 0.00 0.00 45 1009.3
20260504231830 72 328 9.0 17.0 0.00 0.00 0.00 45 1009.3
20260504231800 72 302 5.0 24.0 0.00 0.00 0.00 45 1009.3
20260504231646 72 305 9.0 24.0 0.00 0.00 0.00 45 1009.3
20260504231543 72 333 11.0 24.0 0.00 0.00 0.00 45 1009.3
20260504231425 72 239 10.0 24.0 0.00 0.00 0.00 44 1009.3
20260504231343 72 248 9.0 24.0 0.00 0.00 0.00 45 1009.2
20260504231241 72 270 10.0 24.0 0.00 0.00 0.00 45 1009.2
20260504231140 72 301 10.0 24.0 0.00 0.00 0.00 44 1009.2
20260504231038 72 312 6.0 24.0 0.00 0.00 0.00 45 1009.2
20260504230936 72 277 14.0 24.0 0.00 0.00 0.00 44 1009.2
20260504230836 72 268 13.0 24.0 0.00 0.00 0.00 44 1009.2
20260504230755 72 298 9.0 18.0 0.00 0.00 0.00 44 1009.2
20260504230635 72 294 9.0 18.0 0.00 0.00 0.00 44 1009.2
20260504230535 72 263 13.0 18.0 0.00 0.00 0.00 45 1009.2
20260504230436 72 312 10.0 18.0 0.00 0.00 0.00 45 1009.2
20260504230333 72 267 10.0 18.0 0.00 0.00 0.00 45 1009.2
20260504230243 72 271 8.0 18.0 0.00 0.00 0.00 45 1009.2
20260504230154 72 256 6.0 18.0 0.00 0.00 0.00 45 1009.2
20260504230051 72 272 7.0 20.0 0.00 0.00 0.00 44 1009.2
20260504225932 72 309 12.0 20.0 0.00 0.00 0.00 45 1009.2
20260504225850 72 284 10.0 21.0 0.00 0.00 0.00 45 1009.4
20260504225747 72 275 11.0 21.0 0.00 0.00 0.00 45 1009.4
20260504225706 72 284 10.0 21.0 0.00 0.00 0.00 45 1009.4
20260504225603 72 316 6.0 21.0 0.00 0.00 0.00 44 1009.4
20260504225440 72 298 6.0 21.0 0.00 0.00 0.00 44 1009.4
20260504225339 72 326 9.0 21.0 0.00 0.00 0.00 44 1009.4
20260504225236 72 288 13.0 21.0 0.00 0.00 0.00 44 1009.4
20260504225136 72 298 14.0 21.0 0.00 0.00 0.00 44 1009.4
20260504225038 72 267 14.0 21.0 0.00 0.00 0.00 44 1009.4
20260504224937 72 301 9.0 17.0 0.00 0.00 0.00 44 1009.4
20260504224837 72 309 8.0 16.0 0.00 0.00 0.00 44 1009.4
20260504224735 72 299 5.0 16.0 0.00 0.00 0.00 44 1009.4
20260504224704 72 335 6.0 17.0 0.00 0.00 0.00 44 1009.4
20260504224541 72 330 9.0 17.0 0.00 0.00 0.00 44 1009.4
20260504224459 72 298 9.0 17.0 0.00 0.00 0.00 44 1009.4
20260504224336 72 315 7.0 17.0 0.00 0.00 0.00 43 1009.5
20260504224239 72 280 7.0 17.0 0.00 0.00 0.00 43 1009.5
20260504224137 72 291 7.0 17.0 0.00 0.00 0.00 43 1009.5
20260504224056 72 257 10.0 17.0 0.00 0.00 0.00 43 1009.5
20260504223932 72 280 7.0 17.0 0.00 0.00 0.00 43 1009.5
20260504223851 72 224 10.0 18.0 0.00 0.00 0.00 43 1009.5
20260504223729 72 257 5.0 18.0 0.00 0.00 0.00 43 1009.5
20260504223627 72 282 9.0 18.0 0.00 0.00 0.00 43 1009.5
20260504223530 72 304 10.0 18.0 0.00 0.00 0.00 43 1009.5
20260504223429 72 268 5.0 18.0 0.00 0.00 0.00 43 1009.5
20260504223328 72 298 3.0 18.0 0.00 0.00 0.00 43 1009.5
20260504223227 72 305 7.0 18.0 0.00 0.00 0.00 43 1009.5
20260504223157 72 291 8.0 18.0 0.00 0.00 0.00 43 1009.5
20260504223033 72 304 11.0 18.0 0.00 0.00 0.00 44 1009.5
20260504222931 72 304 8.0 18.0 0.00 0.00 0.00 44 1009.5
20260504222850 72 292 12.0 18.0 0.00 0.00 0.00 45 1009.4
20260504222732 72 280 7.0 17.0 0.00 0.00 0.00 45 1009.4
20260504222631 72 298 6.0 25.0 0.00 0.00 0.00 45 1009.4
20260504222530 72 285 8.0 25.0 0.00 0.00 0.00 45 1009.4
20260504222430 72 248 4.0 25.0 0.00 0.00 0.00 45 1009.4
20260504222328 73 292 10.0 25.0 0.00 0.00 0.00 44 1009.4
20260504222226 73 319 8.0 25.0 0.00 0.00 0.00 44 1009.4
20260504222129 73 270 11.0 25.0 0.00 0.00 0.00 44 1009.4
20260504222030 73 309 11.0 25.0 0.00 0.00 0.00 44 1009.4
20260504221929 73 268 9.0 25.0 0.00 0.00 0.00 44 1009.4
20260504221847 73 280 16.0 25.0 0.00 0.00 0.00 44 1009.4
20260504221745 73 264 10.0 21.0 0.00 0.00 0.00 44 1009.4
20260504221715 73 282 8.0 21.0 0.00 0.00 0.00 44 1009.4
20260504221531 73 248 9.0 21.0 0.00 0.00 0.00 45 1009.4
20260504221430 73 271 10.0 21.0 0.00 0.00 0.00 45 1009.4
20260504221332 73 291 13.0 21.0 0.00 0.00 0.00 45 1009.5
20260504221250 73 302 12.0 21.0 0.00 0.00 0.00 45 1009.5
20260504221127 73 308 10.0 21.0 0.00 0.00 0.00 45 1009.5
20260504221025 73 291 13.0 21.0 0.00 0.00 0.00 44 1009.5
20260504220924 73 292 6.0 21.0 0.00 0.00 0.00 44 1009.5
20260504220824 73 302 10.0 21.0 0.00 0.00 0.00 44 1009.5
20260504220743 73 320 10.0 21.0 0.00 0.00 0.00 44 1009.5
20260504220627 73 272 12.0 21.0 0.00 0.00 0.00 44 1009.5
20260504220526 73 272 10.0 21.0 0.00 0.00 0.00 44 1009.5
20260504220424 73 267 6.0 18.0 0.00 0.00 0.00 44 1009.5
20260504220323 73 330 9.0 18.0 0.00 0.00 0.00 44 1009.5
20260504220237 73 329 7.0 18.0 0.00 0.00 0.00 44 1009.5
20260504220148 73 304 8.0 18.0 0.00 0.00 0.00 43 1009.5
20260504220043 73 318 6.0 18.0 0.00 0.00 0.00 43 1009.5
20260504215926 73 301 7.0 18.0 0.00 0.00 0.00 42 1009.5
20260504215824 73 323 8.0 18.0 0.00 0.00 0.00 42 1009.5
20260504215743 73 308 11.0 18.0 0.00 0.00 0.00 42 1009.5
20260504215643 73 287 10.0 18.0 0.00 0.00 0.00 42 1009.5
20260504215541 73 313 7.0 13.0 0.00 0.00 0.00 42 1009.5
20260504215440 73 326 5.0 13.0 0.00 0.00 0.00 41 1009.5
20260504215359 73 306 7.0 14.0 0.00 0.00 0.00 40 1009.5
20260504215236 73 311 7.0 14.0 0.00 0.00 0.00 40 1009.5
20260504215159 73 251 7.0 14.0 0.00 0.00 0.00 39 1009.5
20260504215056 73 278 9.0 14.0 0.00 0.00 0.00 38 1009.5
20260504214933 73 325 8.0 17.0 0.00 0.00 0.00 39 1009.5
20260504214832 73 287 2.0 17.0 0.00 0.00 0.00 39 1009.5
20260504214800 73 305 6.0 19.0 0.00 0.00 0.00 39 1009.5
20260504214647 73 329 5.0 19.0 0.00 0.00 0.00 39 1009.5
20260504214524 73 318 8.0 19.0 0.00 0.00 0.00 38 1009.5
20260504214442 73 274 7.0 19.0 0.00 0.00 0.00 38 1009.5
20260504214325 73 304 8.0 19.0 0.00 0.00 0.00 38 1009.4
20260504214244 73 284 9.0 19.0 0.00 0.00 0.00 39 1009.4
20260504214142 73 322 9.0 19.0 0.00 0.00 0.00 40 1009.4
20260504214039 73 326 8.0 19.0 0.00 0.00 0.00 40 1009.4
20260504213938 73 308 10.0 19.0 0.00 0.00 0.00 41 1009.4
20260504213837 73 302 8.0 18.0 0.00 0.00 0.00 41 1009.4
20260504213735 73 312 9.0 18.0 0.00 0.00 0.00 41 1009.4
20260504213639 73 305 10.0 19.0 0.00 0.00 0.00 40 1009.4
20260504213537 73 329 9.0 19.0 0.00 0.00 0.00 41 1009.4
20260504213437 73 322 7.0 19.0 0.00 0.00 0.00 41 1009.4
20260504213336 73 316 10.0 19.0 0.00 0.00 0.00 41 1009.4
20260504213234 73 270 8.0 19.0 0.00 0.00 0.00 41 1009.4
20260504213205 73 322 8.0 19.0 0.00 0.00 0.00 41 1009.4
20260504213041 73 325 7.0 19.0 0.00 0.00 0.00 42 1009.4
20260504212925 73 217 10.0 20.0 0.00 0.00 0.00 41 1009.4
20260504212842 73 325 7.0 20.0 0.00 0.00 0.00 42 1009.6
20260504212741 73 302 5.0 24.0 0.00 0.00 0.00 41 1009.6
20260504212639 73 285 8.0 24.0 0.00 0.00 0.00 41 1009.6
20260504212538 73 328 6.0 24.0 0.00 0.00 0.00 41 1009.6
20260504212435 73 299 7.0 24.0 0.00 0.00 0.00 41 1009.6
20260504212333 73 287 9.0 24.0 0.00 0.00 0.00 41 1009.6
20260504212256 73 265 6.0 24.0 0.00 0.00 0.00 41 1009.6
20260504212132 73 261 6.0 24.0 0.00 0.00 0.00 40 1009.6
20260504212030 73 305 13.0 24.0 0.00 0.00 0.00 39 1009.6
20260504211930 73 246 15.0 24.0 0.00 0.00 0.00 40 1009.6
20260504211828 73 292 8.0 21.0 0.00 0.00 0.00 39 1009.6
20260504211726 73 296 9.0 21.0 0.00 0.00 0.00 39 1009.6
20260504211657 73 309 14.0 21.0 0.00 0.00 0.00 39 1009.6
20260504211538 73 318 11.0 21.0 0.00 0.00 0.00 40 1009.6
20260504211437 73 325 10.0 17.0 0.00 0.00 0.00 40 1009.6
20260504211336 73 316 7.0 17.0 0.00 0.00 0.00 40 1009.7
20260504211235 74 302 9.0 17.0 0.00 0.00 0.00 41 1009.7
20260504211132 73 284 6.0 17.0 0.00 0.00 0.00 41 1009.7
20260504211034 73 240 5.0 16.0 0.00 0.00 0.00 41 1009.7
20260504210932 74 236 7.0 16.0 0.00 0.00 0.00 41 1009.7
20260504210835 74 223 9.0 16.0 0.00 0.00 0.00 41 1009.7
20260504210753 74 316 10.0 20.0 0.00 0.00 0.00 41 1009.7
20260504210630 74 278 6.0 20.0 0.00 0.00 0.00 43 1009.7
20260504210528 74 315 8.0 20.0 0.00 0.00 0.00 44 1009.7
20260504210447 74 284 10.0 20.0 0.00 0.00 0.00 43 1009.7
20260504210324 74 323 10.0 20.0 0.00 0.00 0.00 42 1009.7
20260504210242 74 285 8.0 20.0 0.00 0.00 0.00 43 1009.7
20260504210212 74 240 4.0 20.0 0.00 0.00 0.00 43 1009.7
20260504210027 74 210 5.0 20.0 0.00 0.00 0.00 44 1009.7
20260504205950 74 254 10.0 20.0 0.00 0.00 0.00 44 1009.7
20260504205828 74 322 6.0 14.0 0.00 0.00 0.00 44 1009.8
20260504205726 74 329 5.0 14.0 0.00 0.00 0.00 44 1009.8
20260504205624 74 308 3.0 20.0 0.00 0.00 0.00 44 1009.8
20260504205541 74 305 6.0 20.0 0.00 0.00 0.00 44 1009.8
20260504205440 74 291 8.0 20.0 0.00 0.00 0.00 45 1009.8
20260504205338 74 322 9.0 20.0 0.00 0.00 0.00 45 1009.8
20260504205237 74 319 7.0 20.0 0.00 0.00 0.00 44 1009.8
20260504205139 74 304 3.0 20.0 0.00 0.00 0.00 44 1009.8
20260504205036 74 284 5.0 20.0 0.00 0.00 0.00 45 1009.8
20260504204935 74 274 8.0 20.0 0.00 0.00 0.00 45 1009.8
20260504204833 74 278 15.0 20.0 0.00 0.00 0.00 44 1009.8
20260504204743 74 319 3.0 13.0 0.00 0.00 0.00 45 1009.8
20260504204651 74 254 4.0 19.0 0.00 0.00 0.00 45 1009.8
20260504204528 74 328 6.0 19.0 0.00 0.00 0.00 44 1009.8
20260504204431 74 309 1.0 19.0 0.00 0.00 0.00 44 1009.8
20260504204350 74 261 6.0 19.0 0.00 0.00 0.00 44 1009.9
20260504204228 74 301 9.0 19.0 0.00 0.00 0.00 44 1009.9
20260504204126 74 322 8.0 19.0 0.00 0.00 0.00 44 1009.9
20260504204024 74 301 6.0 19.0 0.00 0.00 0.00 45 1009.9
20260504203944 74 329 5.0 19.0 0.00 0.00 0.00 44 1009.9
20260504203902 74 294 9.0 19.0 0.00 0.00 0.00 45 1009.9
20260504203739 74 288 7.0 14.0 0.00 0.00 0.00 45 1009.9
20260504203642 74 320 6.0 13.0 0.00 0.00 0.00 44 1009.9
20260504203539 74 302 6.0 13.0 0.00 0.00 0.00 44 1009.9
20260504203437 74 328 3.0 13.0 0.00 0.00 0.00 43 1009.9
20260504203336 74 268 5.0 13.0 0.00 0.00 0.00 44 1009.9
20260504203256 74 296 6.0 16.0 0.00 0.00 0.00 44 1009.9
20260504203226 74 323 7.0 16.0 0.00 0.00 0.00 44 1009.9
20260504203103 74 320 8.0 16.0 0.00 0.00 0.00 44 1009.9
20260504202924 74 326 5.0 18.0 0.00 0.00 0.00 44 1009.9
20260504202842 74 335 7.0 18.0 0.00 0.00 0.00 43 1010.1
20260504202741 74 271 7.0 18.0 0.00 0.00 0.00 44 1010.1
20260504202639 74 272 3.0 18.0 0.00 0.00 0.00 46 1010.1
20260504202538 74 230 6.0 18.0 0.00 0.00 0.00 45 1010.1
20260504202456 74 288 8.0 18.0 0.00 0.00 0.00 44 1010.1
20260504202334 74 291 5.0 18.0 0.00 0.00 0.00 44 1010.1
20260504202232 74 257 9.0 18.0 0.00 0.00 0.00 46 1010.1
20260504202155 74 328 11.0 18.0 0.00 0.00 0.00 46 1010.1
20260504202032 74 305 8.0 17.0 0.00 0.00 0.00 46 1010.1
20260504201932 74 315 8.0 15.0 0.00 0.00 0.00 47 1010.1
20260504201831 74 301 7.0 16.0 0.00 0.00 0.00 47 1010.1
20260504201656 74 329 2.0 16.0 0.00 0.00 0.00 46 1010.1
20260504201533 74 309 2.0 16.0 0.00 0.00 0.00 46 1010.1
20260504201431 74 229 4.0 16.0 0.00 0.00 0.00 46 1010.1
20260504201335 74 325 4.0 16.0 0.00 0.00 0.00 46 1010.0
20260504201234 74 330 4.0 16.0 0.00 0.00 0.00 46 1010.0
20260504201132 74 330 4.0 16.0 0.00 0.00 0.00 45 1010.0
20260504201031 74 329 7.0 16.0 0.00 0.00 0.00 46 1010.0
20260504200930 74 292 10.0 16.0 0.00 0.00 0.00 45 1010.0
20260504200849 74 308 10.0 16.0 0.00 0.00 0.00 46 1010.0
20260504200725 74 329 9.0 18.0 0.00 0.00 0.00 45 1010.0
20260504200628 74 329 10.0 18.0 0.00 0.00 0.00 46 1010.0
20260504200526 74 322 12.0 18.0 0.00 0.00 0.00 46 1010.0
20260504200424 74 315 10.0 18.0 0.00 0.00 0.00 47 1010.0
20260504200326 74 315 8.0 18.0 0.00 0.00 0.00 47 1010.0
20260504200225 74 304 10.0 18.0 0.00 0.00 0.00 46 1010.0
20260504200156 74 312 8.0 18.0 0.00 0.00 0.00 46 1010.0
20260504200032 74 302 5.0 18.0 0.00 0.00 0.00 46 1010.0
20260504195930 74 315 8.0 18.0 0.00 0.00 0.00 47 1010.0
20260504195832 74 308 5.0 14.0 0.00 0.00 0.00 46 1010.2
20260504195751 74 256 4.0 12.0 0.00 0.00 0.00 46 1010.2
20260504195709 75 329 8.0 16.0 0.00 0.00 0.00 46 1010.2
20260504195605 75 316 7.0 16.0 0.00 0.00 0.00 46 1010.2
20260504195441 75 272 5.0 16.0 0.00 0.00 0.00 46 1010.2
20260504195340 75 328 4.0 16.0 0.00 0.00 0.00 46 1010.2
20260504195239 75 320 1.0 18.0 0.00 0.00 0.00 46 1010.2
20260504195136 75 291 2.0 18.0 0.00 0.00 0.00 47 1010.2
20260504195039 75 315 6.0 18.0 0.00 0.00 0.00 46 1010.2
20260504194937 75 299 8.0 18.0 0.00 0.00 0.00 45 1010.2
20260504194855 75 320 10.0 18.0 0.00 0.00 0.00 46 1010.2
20260504194753 75 323 9.0 18.0 0.00 0.00 0.00 46 1010.2
20260504194721 75 320 7.0 18.0 0.00 0.00 0.00 45 1010.2
20260504194538 75 287 6.0 18.0 0.00 0.00 0.00 44 1010.2
20260504194436 75 280 9.0 18.0 0.00 0.00 0.00 45 1010.2
20260504194334 75 328 6.0 13.0 0.00 0.00 0.00 45 1010.4
20260504194238 75 239 4.0 13.0 0.00 0.00 0.00 44 1010.4
20260504194156 75 325 8.0 17.0 0.00 0.00 0.00 44 1010.4
20260504194054 75 301 6.0 17.0 0.00 0.00 0.00 44 1010.4
20260504193930 75 328 7.0 17.0 0.00 0.00 0.00 44 1010.4
20260504193829 75 323 10.0 17.0 0.00 0.00 0.00 44 1010.4
20260504193751 75 292 11.0 17.0 0.00 0.00 0.00 45 1010.4
20260504193628 75 289 9.0 17.0 0.00 0.00 0.00 45 1010.4
20260504193527 75 304 1.0 17.0 0.00 0.00 0.00 44 1010.4
20260504193430 75 319 4.0 17.0 0.00 0.00 0.00 43 1010.4
20260504193349 75 320 10.0 17.0 0.00 0.00 0.00 45 1010.4
20260504193227 75 323 5.0 16.0 0.00 0.00 0.00 45 1010.4
20260504193157 75 302 4.0 16.0 0.00 0.00 0.00 45 1010.4
20260504193033 75 320 8.0 17.0 0.00 0.00 0.00 44 1010.4
20260504192931 75 296 6.0 17.0 0.00 0.00 0.00 44 1010.4
20260504192850 75 309 10.0 17.0 0.00 0.00 0.00 44 1010.7
20260504192727 75 325 7.0 17.0 0.00 0.00 0.00 44 1010.7
20260504192629 75 281 8.0 17.0 0.00 0.00 0.00 44 1010.7
20260504192527 75 315 4.0 17.0 0.00 0.00 0.00 44 1010.7
20260504192424 75 304 6.0 17.0 0.00 0.00 0.00 43 1010.7
20260504192344 75 311 10.0 17.0 0.00 0.00 0.00 44 1010.7
20260504192304 75 329 12.0 17.0 0.00 0.00 0.00 44 1010.7
20260504192141 75 333 10.0 17.0 0.00 0.00 0.00 44 1010.7
20260504192059 75 326 9.0 17.0 0.00 0.00 0.00 43 1010.7
20260504191936 75 322 6.0 17.0 0.00 0.00 0.00 44 1010.7
20260504191839 75 328 4.0 17.0 0.00 0.00 0.00 43 1010.7
20260504191739 75 326 6.0 18.0 0.00 0.00 0.00 43 1010.7
20260504191647 75 329 6.0 18.0 0.00 0.00 0.00 43 1010.7
20260504191545 75 329 4.0 18.0 0.00 0.00 0.00 44 1010.7
20260504191442 75 298 6.0 18.0 0.00 0.00 0.00 44 1010.7
20260504191340 75 330 12.0 18.0 0.00 0.00 0.00 44 1010.8
20260504191239 75 299 6.0 18.0 0.00 0.00 0.00 43 1010.8
20260504191136 75 299 3.0 18.0 0.00 0.00 0.00 44 1010.8
20260504191034 75 288 9.0 18.0 0.00 0.00 0.00 43 1010.8
20260504190936 75 305 11.0 18.0 0.00 0.00 0.00 43 1010.8
20260504190835 75 328 11.0 17.0 0.00 0.00 0.00 44 1010.8
20260504190733 75 333 10.0 17.0 0.00 0.00 0.00 44 1010.8
20260504190630 75 256 3.0 16.0 0.00 0.00 0.00 44 1010.8
20260504190529 75 326 9.0 16.0 0.00 0.00 0.00 44 1010.8
20260504190432 75 295 10.0 16.0 0.00 0.00 0.00 45 1010.8
20260504190350 75 316 4.0 13.0 0.00 0.00 0.00 46 1010.8
20260504190303 75 329 8.0 13.0 0.00 0.00 0.00 44 1010.8
20260504190152 75 319 6.0 13.0 0.00 0.00 0.00 45 1010.8
20260504190028 75 316 8.0 13.0 0.00 0.00 0.00 46 1010.8
20260504185927 76 271 1.0 11.0 0.00 0.00 0.00 47 1010.8
20260504185824 76 323 6.0 12.0 0.00 0.00 0.00 47 1011.1
20260504185741 76 315 6.0 12.0 0.00 0.00 0.00 47 1011.1
20260504185640 76 320 2.0 12.0 0.00 0.00 0.00 44 1011.1
20260504185538 76 328 2.0 12.0 0.00 0.00 0.00 44 1011.1
20260504185441 76 288 1.0 12.0 0.00 0.00 0.00 44 1011.1
20260504185340 76 323 3.0 12.0 0.00 0.00 0.00 45 1011.1
20260504185258 76 319 6.0 14.0 0.00 0.00 0.00 44 1011.1
20260504185155 76 299 3.0 14.0 0.00 0.00 0.00 45 1011.1
20260504185033 76 288 8.0 14.0 0.00 0.00 0.00 45 1011.1
20260504184951 76 326 7.0 14.0 0.00 0.00 0.00 46 1011.1
20260504184830 75 304 6.0 14.0 0.00 0.00 0.00 47 1011.1
20260504184748 75 239 4.0 14.0 0.00 0.00 0.00 45 1011.1
20260504184656 75 263 4.0 14.0 0.00 0.00 0.00 45 1011.1
20260504184538 75 272 3.0 14.0 0.00 0.00 0.00 44 1011.1
20260504184437 75 275 6.0 14.0 0.00 0.00 0.00 44 1011.1
20260504184336 75 263 8.0 13.0 0.00 0.00 0.00 44 1011.3
20260504184255 75 311 10.0 13.0 0.00 0.00 0.00 46 1011.3
20260504184132 75 322 8.0 17.0 0.00 0.00 0.00 47 1011.3
20260504184031 75 322 10.0 17.0 0.00 0.00 0.00 45 1011.3
20260504183930 75 305 6.0 17.0 0.00 0.00 0.00 46 1011.3
20260504183832 75 298 4.0 17.0 0.00 0.00 0.00 45 1011.3
20260504183729 75 311 6.0 17.0 0.00 0.00 0.00 45 1011.3
20260504183629 75 316 5.0 17.0 0.00 0.00 0.00 45 1011.3
20260504183547 75 305 4.0 17.0 0.00 0.00 0.00 45 1011.3
20260504183444 75 305 3.0 17.0 0.00 0.00 0.00 45 1011.3
20260504183342 75 295 9.0 17.0 0.00 0.00 0.00 46 1011.3
20260504183301 75 299 8.0 17.0 0.00 0.00 0.00 45 1011.3
20260504183211 75 244 7.0 15.0 0.00 0.00 0.00 46 1011.3
20260504183031 75 322 10.0 15.0 0.00 0.00 0.00 46 1011.3
20260504182950 75 329 6.0 13.0 0.00 0.00 0.00 45 1011.3
20260504182827 75 289 3.0 11.0 0.00 0.00 0.00 45 1011.4
20260504182729 75 312 5.0 11.0 0.00 0.00 0.00 46 1011.4
20260504182628 75 306 6.0 11.0 0.00 0.00 0.00 47 1011.4
20260504182546 75 302 7.0 11.0 0.00 0.00 0.00 45 1011.4
20260504182505 75 272 6.0 12.0 0.00 0.00 0.00 46 1011.4
20260504182402 75 319 7.0 14.0 0.00 0.00 0.00 45 1011.4
20260504182238 75 325 3.0 14.0 0.00 0.00 0.00 45 1011.4
20260504182141 75 308 3.0 14.0 0.00 0.00 0.00 45 1011.4
20260504182039 75 319 2.0 14.0 0.00 0.00 0.00 45 1011.4
20260504181937 75 308 4.0 14.0 0.00 0.00 0.00 44 1011.4
20260504181835 75 308 3.0 14.0 0.00 0.00 0.00 44 1011.4
20260504181753 75 292 2.0 14.0 0.00 0.00 0.00 44 1011.4
20260504181723 75 275 6.0 14.0 0.00 0.00 0.00 45 1011.4
20260504181601 75 270 9.0 14.0 0.00 0.00 0.00 47 1011.4
20260504181439 75 309 11.0 14.0 0.00 0.00 0.00 47 1011.4
20260504181341 75 313 6.0 14.0 0.00 0.00 0.00 47 1011.5
20260504181241 75 271 3.0 14.0 0.00 0.00 0.00 47 1011.5
20260504181158 75 312 1.0 14.0 0.00 0.00 0.00 46 1011.5
20260504181035 75 299 1.0 14.0 0.00 0.00 0.00 45 1011.5
20260504180934 75 285 5.0 14.0 0.00 0.00 0.00 45 1011.5
20260504180832 75 329 7.0 14.0 0.00 0.00 0.00 45 1011.5
20260504180730 75 287 8.0 14.0 0.00 0.00 0.00 45 1011.5
20260504180629 75 320 9.0 14.0 0.00 0.00 0.00 45 1011.5
20260504180531 75 264 7.0 14.0 0.00 0.00 0.00 45 1011.5
20260504180429 75 301 5.0 14.0 0.00 0.00 0.00 45 1011.5
20260504180328 75 329 4.0 14.0 0.00 0.00 0.00 45 1011.5
20260504180227 75 326 8.0 14.0 0.00 0.00 0.00 45 1011.5
20260504180158 75 326 9.0 14.0 0.00 0.00 0.00 45 1011.5
20260504180054 75 291 8.0 14.0 0.00 0.00 0.00 45 1011.5
20260504175932 75 328 5.0 14.0 0.00 0.00 0.00 45 1011.5
20260504175836 75 226 10.0 14.0 0.00 0.00 0.00 45 1011.7
20260504175755 75 328 5.0 14.0 0.00 0.00 0.00 45 1011.7
20260504175631 75 328 5.0 14.0 0.00 0.00 0.00 45 1011.7
20260504175529 75 280 3.0 14.0 0.00 0.00 0.00 45 1011.7
20260504175427 75 304 3.0 14.0 0.00 0.00 0.00 45 1011.7
20260504175326 75 320 6.0 14.0 0.00 0.00 0.00 45 1011.7
20260504175224 75 313 5.0 14.0 0.00 0.00 0.00 45 1011.7
20260504175122 75 298 8.0 14.0 0.00 0.00 0.00 44 1011.7
20260504175029 75 315 8.0 16.0 0.00 0.00 0.00 44 1011.7
20260504174928 75 329 7.0 17.0 0.00 0.00 0.00 44 1011.7
20260504174826 75 304 5.0 17.0 0.00 0.00 0.00 44 1011.7
20260504174736 75 318 2.0 17.0 0.00 0.00 0.00 45 1011.7
20260504174645 75 295 6.0 17.0 0.00 0.00 0.00 44 1011.7
20260504174524 75 304 5.0 17.0 0.00 0.00 0.00 46 1011.7
20260504174443 75 288 6.0 17.0 0.00 0.00 0.00 46 1011.7
20260504174324 75 298 8.0 17.0 0.00 0.00 0.00 46 1012.0
20260504174243 75 328 8.0 17.0 0.00 0.00 0.00 47 1012.0
20260504174142 75 316 10.0 17.0 0.00 0.00 0.00 46 1012.0
20260504174040 75 329 8.0 17.0 0.00 0.00 0.00 45 1012.0
20260504173938 75 312 6.0 17.0 0.00 0.00 0.00 44 1012.0
20260504173837 75 304 6.0 14.0 0.00 0.00 0.00 47 1012.0
20260504173756 75 333 4.0 14.0 0.00 0.00 0.00 47 1012.0
20260504173639 75 315 5.0 14.0 0.00 0.00 0.00 46 1012.0
20260504173541 75 298 5.0 14.0 0.00 0.00 0.00 46 1012.0
20260504173439 75 329 5.0 14.0 0.00 0.00 0.00 47 1012.0
20260504173335 74 325 7.0 17.0 0.00 0.00 0.00 48 1012.0
20260504173254 74 316 6.0 17.0 0.00 0.00 0.00 47 1012.0
20260504173203 74 322 7.0 17.0 0.00 0.00 0.00 47 1012.0
20260504173038 74 292 8.0 17.0 0.00 0.00 0.00 45 1012.0
20260504172958 74 329 3.0 17.0 0.00 0.00 0.00 47 1012.0
20260504172834 74 253 2.0 17.0 0.00 0.00 0.00 47 1012.2
20260504172758 74 329 4.0 17.0 0.00 0.00 0.00 46 1012.2
20260504172638 74 326 6.0 17.0 0.00 0.00 0.00 47 1012.2
20260504172538 74 285 11.0 17.0 0.00 0.00 0.00 47 1012.2
20260504172457 74 325 11.0 17.0 0.00 0.00 0.00 47 1012.2
20260504172335 74 319 5.0 13.0 0.00 0.00 0.00 47 1012.2
20260504172232 74 301 3.0 13.0 0.00 0.00 0.00 46 1012.2
20260504172131 74 329 2.0 14.0 0.00 0.00 0.00 45 1012.2
20260504172032 74 311 3.0 14.0 0.00 0.00 0.00 46 1012.2
20260504171930 74 319 5.0 14.0 0.00 0.00 0.00 46 1012.2
20260504171829 74 330 4.0 14.0 0.00 0.00 0.00 45 1012.2
20260504171739 74 319 8.0 14.0 0.00 0.00 0.00 45 1012.2
20260504171652 74 312 6.0 14.0 0.00 0.00 0.00 46 1012.2
20260504171529 74 328 5.0 14.0 0.00 0.00 0.00 46 1012.2
20260504171426 74 296 8.0 14.0 0.00 0.00 0.00 46 1012.2
20260504171329 74 328 8.0 14.0 0.00 0.00 0.00 46 1012.4
20260504171247 74 325 5.0 12.0 0.00 0.00 0.00 46 1012.4
20260504171125 74 291 4.0 12.0 0.00 0.00 0.00 46 1012.4
20260504171043 74 291 6.0 12.0 0.00 0.00 0.00 46 1012.4
20260504170941 74 280 5.0 14.0 0.00 0.00 0.00 47 1012.4
20260504170839 74 326 6.0 14.0 0.00 0.00 0.00 46 1012.4
20260504170737 74 318 4.0 14.0 0.00 0.00 0.00 47 1012.4
20260504170636 74 309 6.0 14.0 0.00 0.00 0.00 46 1012.4
20260504170554 74 318 4.0 14.0 0.00 0.00 0.00 45 1012.4
20260504170436 74 304 4.0 14.0 0.00 0.00 0.00 46 1012.4
20260504170333 74 319 6.0 14.0 0.00 0.00 0.00 47 1012.4
20260504170242 74 328 5.0 14.0 0.00 0.00 0.00 47 1012.4
20260504170153 74 323 7.0 14.0 0.00 0.00 0.00 46 1012.4
20260504160332 70 257 7.0 16.0 0.00 0.00 0.00 50 1013.2
20260504160240 70 302 8.0 16.0 0.00 0.00 0.00 50 1013.2
20260504160151 70 304 6.0 16.0 0.00 0.00 0.00 50 1013.2
20260504151141 65 313 10.0 20.0 0.00 0.00 0.00 55 1013.7
20260504151041 65 281 8.0 20.0 0.00 0.00 0.00 54 1013.7
20260504150959 65 295 6.0 20.0 0.00 0.00 0.00 55 1013.7
20260504150836 65 288 7.0 20.0 0.00 0.00 0.00 55 1013.7
20260504150737 65 271 9.0 20.0 0.00 0.00 0.00 54 1013.7
20260504150634 65 315 12.0 20.0 0.00 0.00 0.00 54 1013.7
20260504150532 65 298 9.0 20.0 0.00 0.00 0.00 55 1013.7
20260504150430 65 305 8.0 20.0 0.00 0.00 0.00 55 1013.7
20260504150327 65 285 10.0 20.0 0.00 0.00 0.00 55 1013.7
20260504150256 64 313 11.0 20.0 0.00 0.00 0.00 54 1013.7
20260504150146 64 294 13.0 20.0 0.00 0.00 0.00 55 1013.7
20260504141303 62 298 11.0 19.0 0.00 0.00 0.00 56 1013.4
20260504141141 61 254 9.0 18.0 0.00 0.00 0.00 56 1013.4
20260504141039 61 277 11.0 18.0 0.00 0.00 0.00 56 1013.4
20260504140941 61 304 11.0 17.0 0.00 0.00 0.00 56 1013.4
20260504140838 61 302 10.0 17.0 0.00 0.00 0.00 56 1013.4
20260504140736 61 274 9.0 17.0 0.00 0.00 0.00 56 1013.4
20260504140634 61 302 9.0 18.0 0.00 0.00 0.00 56 1013.4
20260504140533 61 323 7.0 21.0 0.00 0.00 0.00 56 1013.4
20260504140432 61 305 8.0 21.0 0.00 0.00 0.00 56 1013.4
20260504140332 61 289 9.0 21.0 0.00 0.00 0.00 56 1013.4
20260504140234 61 281 8.0 21.0 0.00 0.00 0.00 56 1013.4
20260504140202 61 282 8.0 21.0 0.00 0.00 0.00 56 1013.4
20260504130759 59 322 12.0 24.0 0.00 0.00 0.00 54 1013.1
20260504130637 59 294 13.0 24.0 0.00 0.00 0.00 54 1013.1
20260504130555 59 319 12.0 24.0 0.00 0.00 0.00 54 1013.1
20260504130433 59 267 10.0 24.0 0.00 0.00 0.00 54 1013.1
20260504130330 59 232 6.0 24.0 0.00 0.00 0.00 55 1013.1
20260504130259 59 270 15.0 25.0 0.00 0.00 0.00 55 1013.1
20260504130152 59 268 12.0 25.0 0.00 0.00 0.00 54 1013.1
20260504120241 57 309 14.0 24.0 0.00 0.00 0.00 56 1012.6
20260504120150 57 292 15.0 24.0 0.00 0.00 0.00 56 1012.6
20260504110639 57 301 14.0 25.0 0.00 0.00 0.00 54 1013.1
20260504110541 57 312 14.0 25.0 0.00 0.00 0.00 54 1013.1
20260504110439 57 301 13.0 25.0 0.00 0.00 0.00 54 1013.1
20260504110337 57 315 14.0 25.0 0.00 0.00 0.00 55 1013.1
20260504110239 57 330 11.0 25.0 0.00 0.00 0.00 55 1013.1
20260504110209 57 267 13.0 25.0 0.00 0.00 0.00 55 1013.1
20260504100530 57 274 13.0 26.0 0.00 0.00 0.00 55 1011.9
20260504100329 57 299 19.0 26.0 0.00 0.00 0.00 55 1011.9
20260504100239 57 272 11.0 24.0 0.00 0.00 0.00 55 1011.9
20260504100149 57 288 11.0 24.0 0.00 0.00 0.00 54 1011.9